Weather History for Ogden, UT

Change the Weather History Date:

Monday, January 20, 2014

  Actual Average Record
Temperature  
Mean Temperature 28 °F -  
Max Temperature 36 °F 36 °F 56 °F (1953)
Min Temperature 19 °F 18 °F -11 °F (1984)
Degree Days  
Heating Degree Days 38    
Moisture  
Dew Point 18 °F    
Average Humidity 66    
Maximum Humidity 81    
Minimum Humidity 52    
Precipitation  
Precipitation 0.00 in - - ()
Sea Level Pressure  
Sea Level Pressure 30.46 in    
Wind  
Wind Speed 6 mph (WSW)    
Max Wind Speed 12 mph    
Max Gust Speed -    
Visibility 7 miles    
Events      
Averages and records for this station are not official NWS values.
T = Trace of Precipitation, MM = Missing Value Source: NWS Daily Summary

Daily Weather History Graph

Daily Weather History Graph

Search for Another Location

Airport:

Trip Planner

Search our weather history database for the weather conditions in past years. The results will help you decide how hot, cold, wet, or windy it might be!

Date:

Astronomy

Jan. 20, 2014 Rise Set
Actual Time 7:48 AM MST 5:30 PM MST
Civil Twilight 7:18 AM MST 6:00 PM MST
Nautical Twilight 6:44 AM MST 6:33 PM MST
Astronomical Twilight 6:12 AM MST 7:06 PM MST
Moon 10:11 PM MST (1/20) 9:47 AM MST (1/20)
Length of Visible Light 10h 41m
Length of Day
9h 41m
Waning Gibbous, 82% of the Moon is Illuminated
Jan 20
Waning Gibbous
Jan 23
Last Quarter
Jan 30
New
Feb 6
First Quarter
Feb 14
Full

Hourly Weather History & Observations

Time (MST) Temp. Windchill Dew Point Humidity Pressure Visibility Wind Dir Wind Speed Gust Speed Precip Events Conditions
12:53 AM 23.0 °F 13.1 °F 14.0 °F 68% 30.32 in 10.0 mi South 9.2 mph - N/A   Clear
1:53 AM 26.1 °F 15.6 °F 15.1 °F 63% 30.31 in 10.0 mi South 11.5 mph - N/A   Clear
2:53 AM 24.1 °F 14.4 °F 15.1 °F 69% 30.32 in 10.0 mi SSE 9.2 mph - N/A   Clear
3:53 AM 26.1 °F 16.8 °F 15.1 °F 63% 30.32 in 10.0 mi South 9.2 mph - N/A   Clear
4:53 AM 25.0 °F - 15.1 °F 66% 30.35 in 9.0 mi Calm Calm - N/A   Clear
5:53 AM 19.9 °F 14.9 °F 15.1 °F 81% 30.41 in 5.0 mi North 3.5 mph - N/A   Haze
6:53 AM 25.0 °F 19.3 °F 17.1 °F 72% 30.42 in 6.0 mi North 4.6 mph - N/A   Haze
7:53 AM 23.0 °F 15.8 °F 15.1 °F 72% 30.43 in 7.0 mi West 5.8 mph - N/A   Clear
8:53 AM 25.0 °F 15.5 °F 14.0 °F 63% 30.46 in 10.0 mi SSW 9.2 mph - N/A   Clear
9:53 AM 28.9 °F - 17.1 °F 61% 30.48 in 7.0 mi Calm Calm - N/A   Clear
10:53 AM 32.0 °F - 18.0 °F 56% 30.49 in 7.0 mi Calm Calm - N/A   Clear
11:53 AM 33.1 °F 28.7 °F 21.0 °F 61% 30.50 in 5.0 mi NW 4.6 mph - N/A   Haze
12:53 PM 34.0 °F 29.8 °F 19.9 °F 56% 30.48 in 6.0 mi NW 4.6 mph - N/A   Haze
1:53 PM 36.0 °F 32.1 °F 19.9 °F 52% 30.47 in 6.0 mi NNW 4.6 mph - N/A   Haze
2:53 PM 35.1 °F 30.1 °F 21.9 °F 59% 30.48 in 6.0 mi NW 5.8 mph - N/A   Haze
3:53 PM 35.1 °F 31.0 °F 19.9 °F 54% 30.49 in 6.0 mi NW 4.6 mph - N/A   Haze
4:53 PM 33.1 °F - 21.0 °F 61% 30.51 in 5.0 mi Calm Calm - N/A   Haze
5:53 PM 30.0 °F 25.2 °F 19.0 °F 64% 30.54 in 6.0 mi NW 4.6 mph - N/A   Haze
6:53 PM 27.0 °F 23.0 °F 19.9 °F 75% 30.55 in 5.0 mi South 3.5 mph - N/A   Haze
7:53 PM 26.1 °F 21.9 °F 19.9 °F 78% 30.55 in 5.0 mi South 3.5 mph - N/A   Haze
8:53 PM 26.1 °F - 19.0 °F 75% 30.56 in 5.0 mi Calm Calm - N/A   Haze
9:53 PM 27.0 °F 21.6 °F 19.9 °F 75% 30.54 in 6.0 mi South 4.6 mph - N/A   Haze
10:53 PM 21.9 °F - 15.1 °F 75% 30.58 in 8.0 mi Calm Calm - N/A   Clear
11:53 PM 23.0 °F - 16.0 °F 74% 30.58 in 7.0 mi Calm Calm - N/A   Clear